Date,TemperatureHighF,TemperatureAvgF,TemperatureLowF,DewpointHighF,DewpointAvgF,DewpointLowF,HumidityHigh,HumidityAvg,HumidityLow,PressureMaxIn,PressureMinIn,WindSpeedMaxMPH,WindSpeedAvgMPH,GustSpeedMaxMPH,PrecipitationSumIn
2012-1-1,50.9,44.2,39.5,42.7,38.3,31.1,94,80,63,30.07,29.57,25,4,25,0.02
2012-1-2,40.4,32.7,22.6,32.1,24.2,18.0,88,71,56,29.87,29.65,22,3,22,0.01
2012-1-3,22.6,15.2,9.1,18.1,7.5,1.9,83,71,55,30.27,29.87,19,4,19,0.00
2012-1-4,30.1,20.1,8.9,19.8,10.6,2.7,79,67,52,30.27,29.88,18,3,18,0.00
2012-1-5,34.6,31.6,30.1,29.0,25.5,19.7,89,78,66,29.92,29.82,14,2,14,0.01
2012-1-6,54.9,42.1,34.5,38.2,32.1,26.8,78,68,47,29.82,29.61,15,2,15,0.00
2012-1-7,55.3,44.7,38.7,38.4,33.9,29.0,75,66,50,30.03,29.66,20,2,20,0.00
2012-1-8,39.1,32.2,24.0,29.5,24.5,20.2,86,73,63,30.36,30.03,11,1,11,0.01
2012-1-9,44.4,34.8,25.2,28.7,23.4,19.8,86,65,39,30.33,29.88,14,3,14,0.00
2012-1-10,41.7,39.0,34.7,32.6,29.3,25.1,78,68,59,30.02,29.81,12,1,12,0.00
2012-1-11,35.3,34.9,34.6,29.3,28.8,28.0,80,78,76,29.99,29.97,3,0,3,0.00
2012-1-14,14.1,13.6,13.0,11.7,8.6,7.6,92,80,77,30.21,30.15,10,2,10,0.00
2012-1-15,18.0,10.0,1.3,12.7,6.0,-2.2,90,84,73,30.62,30.21,9,1,10,0.00
2012-1-16,29.1,15.3,9.4,20.9,11.5,6.6,92,85,71,30.61,30.21,26,6,26,0.00
2012-1-19,29.9,25.8,17.5,23.9,17.2,10.6,90,70,54,30.14,29.83,26,6,27,0.00
2012-1-20,24.2,19.8,16.0,13.4,9.7,5.2,74,64,55,30.31,30.00,13,3,13,0.01
2012-1-21,29.2,20.9,10.0,22.1,16.3,6.9,90,82,64,30.39,30.09,15,3,15,0.00
2012-1-22,35.2,25.0,10.1,30.1,19.4,6.8,93,80,61,30.46,30.23,27,5,27,0.00
2012-1-23,47.3,42.2,35.1,43.6,38.3,30.0,89,86,82,30.24,29.71,24,7,24,0.00
2012-1-24,45.4,37.6,34.0,42.0,34.2,27.1,94,87,74,30.21,29.74,13,1,13,0.01
2012-1-25,34.5,32.6,31.6,27.4,25.8,24.3,84,76,71,30.38,30.21,12,1,12,0.00
2012-1-26,40.2,34.9,30.0,38.3,32.0,26.6,95,89,80,30.25,29.64,19,4,19,0.01
2012-1-27,52.4,42.3,37.4,49.0,38.3,29.2,95,86,72,29.93,29.28,18,4,18,0.00
2012-1-28,45.2,37.5,32.1,34.2,27.7,19.3,84,68,52,30.01,29.75,23,5,23,0.01
2012-1-29,42.2,34.6,29.0,30.1,22.6,17.9,92,62,43,30.08,29.90,21,3,21,0.00
2012-1-30,34.7,30.6,25.4,28.5,21.5,16.6,92,70,49,30.30,29.96,16,3,16,0.01
2012-1-31,59.9,48.0,33.9,42.1,34.5,23.7,71,60,47,30.07,29.85,13,3,18,0.00
2012-2-1,57.3,49.7,39.6,48.0,39.4,31.7,85,68,50,30.08,29.79,20,3,20,0.02
2012-2-2,39.6,33.9,29.7,32.0,28.3,24.0,86,80,72,30.38,30.06,12,2,12,0.00
2012-2-3,38.8,34.8,30.7,31.3,26.7,21.5,82,72,67,30.51,30.34,11,1,11,0.00
2012-2-4,40.7,35.5,28.2,31.7,27.8,21.4,83,74,60,30.34,30.18,10,1,10,0.00
2012-2-5,35.0,30.7,28.9,25.6,21.3,17.0,83,68,59,30.24,30.15,8,1,8,0.00
2012-2-6,55.2,39.5,29.0,32.5,26.7,22.0,86,63,29,30.17,29.91,14,2,14,0.00
2012-2-7,40.3,35.1,29.8,33.4,28.6,20.4,89,77,67,30.32,29.99,7,2,10,0.00
2012-2-8,32.6,28.9,24.7,25.2,22.7,19.7,84,77,68,30.32,30.12,4,0,6,0.00
2012-2-9,46.0,33.2,24.5,26.9,22.3,17.7,85,66,37,30.17,30.07,9,1,9,0.00
2012-2-10,37.7,31.9,24.8,29.1,22.9,19.3,92,70,52,30.12,29.91,12,1,12,0.00
2012-2-11,32.5,24.6,16.6,28.5,21.1,10.4,96,86,73,29.96,29.76,17,2,17,0.01
2012-2-12,28.0,21.4,16.6,22.0,15.6,10.7,91,78,65,29.96,29.83,19,2,19,0.00
2012-2-13,41.9,33.0,26.9,24.0,19.1,12.4,69,57,44,30.01,29.93,17,3,17,0.01
2012-2-14,38.7,35.6,30.0,33.5,26.5,13.3,82,70,48,30.03,29.95,15,2,16,0.00
2012-2-15,39.3,36.5,31.4,34.9,32.2,28.3,93,85,73,30.27,30.01,6,0,7,0.01
2012-2-16,32.0,31.5,30.9,29.0,28.3,27.2,90,88,86,30.26,30.21,8,3,8,0.00
2012-2-17,44.0,38.7,32.5,30.3,27.6,24.2,86,65,50,30.07,29.96,17,2,17,0.00
2012-2-18,43.4,35.0,29.9,34.0,28.3,22.7,91,77,61,30.12,29.83,21,2,21,0.01
2012-2-19,36.1,32.4,29.2,30.1,24.9,20.8,85,74,59,30.15,30.08,9,2,11,0.00
2012-2-20,36.7,30.4,26.8,22.8,21.2,17.1,82,69,52,30.35,30.12,12,1,12,0.00
2012-2-21,42.5,34.7,25.2,32.9,25.6,20.3,84,70,44,30.35,29.71,29,6,29,0.00
2012-2-22,41.6,39.4,36.9,37.3,34.4,31.9,91,82,71,29.72,29.40,11,2,12,0.01
2012-2-23,45.2,37.5,32.3,35.4,31.9,29.2,96,81,58,29.75,29.41,14,1,14,0.00
2012-2-24,44.2,38.5,34.4,39.2,34.0,28.1,94,84,64,29.70,29.26,31,5,31,0.02
2012-2-25,37.5,32.7,28.3,28.7,24.2,14.7,91,71,50,30.18,29.39,21,5,21,0.01
2012-2-26,34.2,29.6,26.3,23.4,20.0,17.1,78,67,57,30.45,30.17,17,2,17,0.00
2012-2-27,54.7,40.0,29.3,32.5,26.8,21.7,76,60,40,30.33,29.99,17,4,19,0.00
2012-2-28,37.3,33.4,29.0,27.6,24.0,22.3,81,68,61,30.49,30.26,16,2,16,0.00
2012-2-29,39.2,35.4,31.3,36.7,30.7,24.5,93,83,66,30.36,29.60,17,5,23,0.02
2012-3-1,41.9,39.3,37.6,38.3,35.5,32.8,94,86,75,29.92,29.55,22,3,23,0.00
2012-3-2,47.6,40.9,36.4,37.9,35.4,32.4,92,81,64,29.98,29.49,28,5,28,0.01
2012-3-3,52.4,44.1,35.0,44.0,31.8,21.8,90,64,37,29.68,29.33,28,7,28,0.00
2012-3-4,37.3,31.6,23.3,29.8,23.9,16.8,89,73,60,29.84,29.64,16,2,16,0.01
2012-3-5,27.8,22.4,18.5,19.2,13.4,10.1,84,69,50,30.44,29.83,13,2,13,0.00
2012-3-6,42.1,32.0,20.1,27.8,20.7,11.8,81,64,43,30.59,30.35,18,3,18,0.00
2012-3-7,67.8,50.6,38.6,37.8,32.4,26.3,68,51,31,30.35,30.10,17,5,17,0.00
2012-3-8,63.7,53.1,36.5,52.6,42.6,34.2,94,69,49,30.10,29.73,28,6,30,0.02
2012-3-9,39.6,33.0,26.6,34.1,25.1,15.1,91,73,53,30.35,30.00,22,3,22,0.01
2012-3-10,37.1,29.7,21.7,24.8,19.2,14.0,77,65,50,30.59,30.35,16,3,16,0.00
2012-3-11,67.8,50.1,36.6,37.2,28.8,20.9,72,46,23,30.37,30.22,14,3,16,0.00
2012-3-12,66.3,52.6,40.5,40.2,34.1,29.5,66,50,33,30.27,29.97,14,3,14,0.00
2012-3-13,67.3,59.0,51.7,56.6,48.2,39.3,94,68,50,30.00,29.87,15,2,15,0.01
2012-3-14,60.9,49.4,36.5,44.5,35.9,29.6,92,63,32,30.18,30.00,14,1,14,0.00
2012-3-15,43.6,42.7,41.6,34.8,33.3,32.3,75,69,66,30.19,30.17,10,2,10,0.00
2012-3-25,51.8,48.4,43.7,47.7,44.9,41.0,96,88,80,29.85,29.80,8,1,9,0.01
2012-3-26,50.2,38.0,32.6,46.9,24.7,12.0,96,60,39,30.28,29.81,19,4,19,0.00
2012-3-27,44.1,35.4,26.3,25.4,16.1,10.4,58,45,27,30.42,29.99,16,2,16,0.00
2012-3-28,75.2,54.1,41.8,51.4,37.8,22.4,92,57,38,29.99,29.50,19,4,19,0.01
2012-3-29,46.5,40.1,37.7,43.9,35.2,28.6,93,83,68,30.09,29.71,17,3,17,0.00
2012-3-30,48.3,40.4,34.0,36.0,28.3,23.7,92,63,44,30.15,29.89,10,1,10,0.01
2012-3-31,42.3,40.1,37.3,39.1,37.2,35.2,95,89,82,29.94,29.83,6,1,7,0.00
2012-4-1,41.1,39.2,37.6,38.5,36.4,34.7,95,90,84,29.93,29.69,8,0,9,0.00
2012-4-2,51.3,43.0,35.8,37.6,30.8,20.6,95,66,32,29.96,29.74,12,2,14,0.00
2012-4-3,53.5,44.6,34.3,33.7,28.5,23.8,73,54,34,30.05,29.80,7,1,8,0.00
2012-4-4,58.9,45.7,33.6,38.8,32.4,27.9,87,61,41,29.81,29.66,12,2,16,0.00
2012-4-5,43.9,39.0,30.2,33.3,28.9,25.4,82,67,57,30.04,29.80,13,2,13,0.00
2012-4-6,48.6,38.4,27.9,30.5,26.8,20.6,91,65,38,30.13,30.03,13,2,14,0.00
2012-4-7,54.4,43.7,31.6,30.0,25.4,17.3,84,52,25,30.21,30.07,16,2,16,0.00
2012-4-8,63.9,51.7,32.0,43.0,32.9,23.9,83,52,24,30.07,29.73,19,3,19,0.01
2012-4-9,56.3,47.6,41.0,34.2,28.2,24.9,67,48,31,29.78,29.65,25,4,25,0.00
2012-4-10,53.3,45.1,39.1,34.3,30.5,27.4,75,57,40,29.83,29.64,15,3,16,0.00
2012-4-11,48.9,41.6,37.4,39.5,35.4,32.1,92,79,64,30.05,29.81,13,2,13,0.01
2012-4-12,51.5,42.4,34.1,37.4,33.1,28.8,85,70,48,30.19,30.05,8,1,9,0.00
2012-4-13,60.3,44.8,33.0,40.3,33.4,29.1,89,67,33,30.27,30.15,8,1,8,0.00
2012-4-14,67.6,52.1,37.3,45.8,37.1,31.2,81,59,32,30.20,29.93,12,2,12,0.00
2012-4-15,68.3,59.4,51.5,60.3,54.2,45.7,90,83,66,29.98,29.85,11,2,11,0.01
2012-4-16,89.2,72.0,58.2,61.1,55.8,49.6,85,60,30,29.95,29.71,24,4,24,0.00
2012-4-17,64.1,52.3,39.8,49.8,39.7,32.2,78,62,50,30.33,29.95,13,2,19,0.00
2012-4-18,53.7,42.5,33.7,39.3,32.2,29.1,84,68,43,30.37,30.08,10,1,10,0.00
2012-4-19,75.8,56.7,40.3,50.3,42.6,33.3,83,61,35,30.09,29.90,13,3,13,0.00
2012-4-20,78.5,65.2,52.6,51.1,46.9,42.3,82,55,31,29.93,29.67,20,5,21,0.00
2012-4-21,61.8,47.9,38.9,50.1,43.8,37.3,94,86,61,29.94,29.65,17,2,17,0.01
2012-4-22,42.7,40.3,36.9,38.7,37.7,35.3,95,91,83,29.93,29.68,12,2,12,0.01
2012-4-23,36.9,34.3,33.0,35.2,33.2,31.8,100,95,94,29.68,29.32,17,3,17,0.00
2012-4-26,51.5,45.9,44.6,48.1,42.3,38.5,93,87,79,29.76,29.58,12,2,12,0.01
2012-4-27,44.6,39.0,34.5,39.3,30.6,26.1,94,72,60,30.19,29.76,15,3,16,0.01
2012-4-28,51.5,40.8,30.2,35.9,29.5,25.8,84,65,46,30.30,30.16,7,1,7,0.00
2012-4-29,55.3,42.1,28.7,33.3,28.1,22.9,88,61,31,30.29,30.19,13,1,16,0.00
2012-4-30,60.6,47.6,32.4,47.5,33.2,24.9,94,61,31,30.34,29.98,9,2,13,0.14
2012-5-1,60.4,53.8,48.6,54.9,49.8,45.2,95,86,79,30.08,29.88,13,1,13,0.07
2012-5-2,68.2,56.6,48.3,59.5,52.0,45.2,94,85,66,30.08,29.93,16,2,16,0.11
2012-5-3,76.8,64.9,56.9,65.7,59.4,53.4,94,83,60,30.06,29.85,17,2,17,0.00
2012-5-4,74.7,64.8,56.3,64.7,60.8,54.9,98,87,68,29.94,29.86,12,1,12,0.38
2012-5-5,60.2,54.7,47.2,56.9,47.6,40.8,95,77,65,30.09,29.93,10,1,10,0.00
2012-5-6,69.7,53.2,39.8,48.4,42.2,37.8,95,69,43,30.11,30.05,9,1,9,0.00
2012-5-7,64.8,54.7,47.8,56.4,49.1,42.1,95,82,59,30.08,29.86,15,3,17,0.41
2012-5-8,61.9,56.4,52.2,58.8,54.3,50.3,98,93,88,29.86,29.71,14,3,14,0.42
2012-5-9,69.8,58.7,50.9,58.7,52.3,46.2,98,82,44,29.77,29.62,8,1,8,0.01
2012-5-10,58.1,52.1,48.0,49.8,41.7,35.2,95,69,43,29.88,29.60,12,2,12,0.00
2012-5-11,65.8,54.1,40.5,44.2,39.8,35.4,87,61,36,30.12,29.87,12,1,17,0.00
2012-5-12,79.6,60.4,44.7,53.9,46.2,39.9,87,63,33,30.21,30.10,11,1,11,0.00
2012-5-13,76.3,63.8,55.1,58.9,53.5,48.8,89,70,53,30.19,30.08,10,1,11,0.00
2012-5-14,67.7,60.5,55.2,59.3,56.4,52.2,95,87,72,30.10,30.00,9,2,10,0.03
2012-5-15,72.8,63.4,55.5,63.4,58.9,54.4,97,86,62,30.02,29.86,8,1,9,0.02
2012-5-16,77.5,61.7,49.0,60.6,55.1,40.0,96,80,50,30.06,29.77,10,1,10,0.11
2012-5-17,64.1,52.9,43.0,46.0,40.2,34.2,85,64,38,30.19,30.06,0,0,0,0.00
2012-5-18,74.8,56.0,40.8,51.2,42.4,35.8,90,65,27,30.25,30.10,9,0,9,0.00
2012-5-19,85.6,65.1,50.1,59.0,49.7,44.4,87,61,24,30.18,30.09,8,0,8,0.00
2012-5-20,87.6,69.7,53.6,61.2,54.3,49.9,88,61,33,30.22,30.08,0,0,0,0.00
2012-5-21,76.1,67.2,60.3,64.8,57.0,46.4,88,70,55,30.13,29.94,0,0,0,0.00
2012-5-22,75.3,67.4,61.8,65.0,61.5,58.7,92,82,65,29.94,29.78,0,0,0,0.00
2012-5-23,75.1,66.3,61.3,66.0,61.8,59.1,97,86,64,29.97,29.86,0,0,0,0.02
2012-5-24,79.7,68.5,59.8,66.6,62.4,58.1,95,81,57,30.07,29.96,12,0,12,0.00
2012-5-25,85.9,72.2,63.0,68.3,63.1,57.6,88,74,49,30.06,29.95,16,4,16,0.00
2012-5-26,81.5,72.0,61.4,65.1,57.9,51.4,89,63,41,30.16,30.00,9,0,10,0.00
2012-5-27,80.0,68.2,56.9,63.5,57.0,51.5,87,69,46,30.17,29.94,11,0,11,0.00
2012-5-28,89.9,74.4,61.1,74.3,66.2,58.2,94,77,57,29.99,29.77,9,1,10,0.08
2012-5-29,91.8,75.4,66.2,74.7,68.3,63.9,94,80,49,29.78,29.61,13,2,13,0.64
2012-5-30,77.3,68.0,58.2,65.7,60.6,52.5,96,79,57,29.79,29.70,8,0,8,0.00
2012-5-31,69.2,60.7,54.1,55.3,51.7,47.8,90,73,57,29.99,29.79,3,0,6,0.00
2012-6-1,67.2,59.3,50.6,60.1,54.3,47.9,93,84,71,30.00,29.61,22,3,22,0.13
2012-6-2,67.3,61.8,56.4,59.7,52.7,48.0,94,73,52,29.74,29.59,16,2,16,0.04
2012-6-3,66.5,60.0,56.6,57.5,53.2,47.8,94,79,63,29.73,29.64,14,2,14,0.05
2012-6-4,56.8,54.8,53.2,55.1,53.1,52.1,96,94,88,29.85,29.63,2,0,2,0.19
2012-6-5,66.5,58.0,50.6,56.0,52.7,49.5,97,83,63,29.96,29.85,0,0,0,0.01
2012-6-6,73.5,60.3,48.5,59.8,52.6,46.9,96,77,52,30.00,29.90,0,0,0,0.00
2012-6-7,76.9,62.8,50.7,61.5,54.3,48.5,95,76,47,30.00,29.89,0,0,0,0.00
2012-6-8,81.0,67.4,55.1,61.2,55.9,51.8,92,69,43,29.95,29.82,11,0,11,0.00
2012-6-9,75.3,66.5,60.0,65.9,60.5,52.6,96,82,57,29.96,29.83,8,0,8,0.27
2012-6-10,87.5,73.9,63.8,71.4,66.1,61.9,95,78,55,30.07,29.95,9,1,9,0.02
2012-6-11,88.9,75.6,67.0,69.4,65.9,61.4,91,73,40,30.10,29.98,15,4,15,0.00
2012-6-12,70.8,66.5,63.0,67.6,63.9,60.3,96,92,81,29.99,29.79,15,3,15,0.33
2012-6-13,64.1,60.2,56.5,60.2,53.5,50.4,87,79,74,29.98,29.93,4,0,10,0.00
2012-6-14,78.8,66.9,51.0,61.4,56.8,49.6,96,72,48,30.28,30.20,7,1,7,0.01
2012-6-15,82.7,68.3,55.3,66.2,58.3,53.0,94,73,44,30.30,30.19,8,1,8,0.00
2012-6-16,84.5,72.4,61.3,66.6,61.6,57.6,90,71,43,30.28,30.10,8,1,8,0.00
2012-6-17,78.0,70.0,63.7,62.6,60.6,58.1,86,73,52,30.11,29.96,16,3,16,0.00
2012-6-18,71.1,67.4,62.9,62.7,60.3,56.6,82,78,73,30.03,29.94,15,4,15,0.00
2012-6-19,87.0,71.7,62.3,75.1,66.3,59.4,96,84,63,30.06,29.97,16,2,16,0.84
2012-6-20,94.6,80.2,69.9,76.2,71.1,67.7,96,76,52,30.06,29.95,9,1,9,0.00
2012-6-21,92.7,80.0,69.8,75.0,69.7,66.3,92,73,47,29.97,29.75,12,1,12,0.00
2012-6-22,83.1,73.2,63.0,69.7,64.4,57.1,93,75,49,29.89,29.79,5,0,5,0.00
2012-6-23,79.0,68.7,57.8,65.4,59.1,55.0,92,73,55,30.02,29.89,7,1,7,0.00
2012-6-24,82.8,68.5,58.2,66.0,59.8,55.2,92,75,42,30.04,29.81,9,1,9,0.00
2012-6-25,69.2,64.2,55.8,63.4,57.4,50.3,93,80,58,29.86,29.76,9,1,10,0.24
2012-6-26,72.6,64.9,55.0,55.9,52.5,49.2,93,66,45,29.84,29.76,6,1,14,0.01
2012-6-27,80.2,69.7,60.7,58.9,54.4,50.9,82,60,38,29.85,29.76,6,1,17,0.00
2012-6-28,86.3,71.8,60.4,68.2,60.2,55.3,88,69,44,29.83,29.65,10,1,10,0.00
2012-6-30,90.7,81.7,67.0,66.3,62.3,56.3,86,55,35,29.75,29.68,10,2,10,0.00
2012-7-16,89.5,78.4,68.3,73.0,69.6,66.5,95,77,49,29.91,29.84,9,1,9,0.00
2012-7-17,97.5,88.6,72.3,71.2,66.8,62.1,81,50,38,29.78,29.67,16,2,16,0.29
2012-7-18,85.7,77.5,67.3,72.3,67.6,60.9,88,73,54,29.93,29.73,6,0,6,0.00
2012-7-19,82.3,69.9,63.0,67.6,62.1,57.2,94,78,51,29.99,29.92,7,0,7,0.08
2012-7-20,71.5,65.7,60.5,65.6,62.8,59.0,96,90,79,30.07,29.95,6,0,6,0.22
2012-7-21,81.3,70.9,59.7,65.0,62.1,58.0,96,76,50,30.10,30.00,7,1,8,0.01
2012-7-22,86.7,75.2,64.6,69.6,65.0,60.4,94,72,46,30.10,30.00,11,2,11,0.48
2012-7-23,93.8,81.9,70.4,74.7,70.3,67.8,94,71,45,30.02,29.66,17,2,17,0.02
2012-7-24,84.5,77.2,64.9,73.6,65.7,55.6,90,68,50,29.87,29.66,11,1,17,0.14
2012-7-25,82.7,71.6,58.9,64.5,59.9,55.3,90,68,47,29.97,29.72,6,1,6,0.00
2012-7-26,84.4,72.8,65.7,72.8,67.7,61.4,94,85,63,29.75,29.58,12,1,12,0.33
2012-7-27,82.3,73.1,67.6,71.3,67.9,64.5,96,85,64,29.90,29.63,5,0,5,0.19
2012-7-28,80.2,70.7,65.0,70.9,66.5,63.2,97,87,69,29.97,29.89,7,0,7,0.83
2012-7-29,85.0,73.5,62.2,69.1,63.4,57.6,94,73,42,30.04,29.96,6,0,6,0.00
2012-7-30,87.3,73.7,61.4,70.6,62.8,57.6,90,71,43,30.06,29.95,11,1,11,0.00
2012-7-31,84.0,74.4,67.3,71.2,67.7,62.9,96,80,59,29.99,29.82,17,3,18,0.74
2012-8-1,80.1,71.6,64.6,71.6,67.1,62.8,95,86,72,29.87,29.81,8,1,8,0.00
2012-8-2,69.5,65.6,64.4,66.1,64.1,63.1,96,95,89,29.90,29.85,8,1,8,0.01
2012-8-3,89.5,79.1,69.5,74.6,69.6,62.3,91,74,53,30.05,29.92,9,1,9,0.00
2012-8-4,92.7,81.0,71.1,75.6,70.4,65.9,91,72,46,30.11,30.00,18,3,18,0.00
2012-8-5,86.3,77.9,71.9,75.5,71.8,68.5,93,82,68,30.04,29.86,17,3,17,0.03
2012-8-6,78.3,70.2,60.6,68.8,60.8,57.9,92,73,51,30.10,29.97,8,1,8,0.00
2012-8-7,85.5,70.5,57.5,67.0,59.7,55.2,95,72,37,30.03,29.91,9,1,9,0.01
2012-8-8,88.5,73.0,62.5,70.8,64.2,58.2,91,75,48,29.97,29.88,9,1,9,0.00
2012-8-9,86.5,74.6,66.0,73.3,68.2,63.3,93,81,60,29.91,29.80,20,1,24,0.77
2012-8-10,76.6,72.9,69.0,70.2,68.2,66.4,94,85,76,29.77,29.68,12,2,14,0.14
2012-8-11,81.7,72.8,66.9,69.3,63.5,57.5,95,75,49,29.90,29.72,18,2,18,0.31
2012-8-12,80.3,68.7,62.7,67.3,62.6,58.1,95,82,57,29.96,29.87,10,1,10,0.24
2012-8-13,80.3,68.6,62.3,66.7,63.1,60.8,96,84,56,30.02,29.95,6,0,6,0.00
2012-8-14,82.7,73.1,66.9,71.6,66.9,64.7,96,82,59,29.94,29.80,14,1,14,0.19
2012-8-15,67.3,66.6,66.1,66.1,65.5,64.9,97,96,96,29.87,29.85,5,0,5,0.01
2012-8-17,74.8,70.9,63.6,65.8,63.5,58.9,88,78,66,29.88,29.74,8,1,11,0.00
2012-8-18,74.9,66.4,55.8,59.4,55.1,50.1,90,69,43,29.98,29.88,7,0,7,0.00
2012-8-19,77.8,64.6,53.7,59.2,55.3,51.4,94,74,43,30.00,29.86,10,1,10,0.00
2012-8-20,76.0,66.5,59.8,63.0,59.6,55.8,91,79,54,29.96,29.86,7,0,8,0.00
2012-8-21,79.2,65.4,55.4,60.1,56.1,51.9,96,75,42,30.09,29.96,7,1,7,0.01
2012-8-22,82.7,68.4,56.1,63.3,58.4,53.0,92,73,45,30.15,30.06,11,1,11,0.00
2012-8-23,85.2,70.2,58.7,67.2,60.4,56.2,94,73,43,30.16,30.09,8,1,8,0.00
2012-8-24,87.8,72.9,60.7,69.4,61.7,57.1,91,70,42,30.18,30.10,9,1,9,0.00
2012-8-25,85.6,74.4,64.6,69.8,64.0,59.8,89,71,51,30.24,30.15,11,2,11,0.00
2012-8-26,84.8,74.9,65.6,69.1,63.7,58.1,89,69,48,30.27,30.11,13,2,13,0.00
2012-8-27,84.8,74.6,69.2,72.2,67.6,63.7,95,80,57,30.14,29.90,12,2,12,0.06
2012-8-28,80.2,71.8,65.4,68.8,64.4,57.3,96,79,58,29.98,29.85,9,1,9,0.04
2012-8-29,75.1,64.8,54.8,57.7,54.1,49.9,91,70,48,30.07,29.98,5,0,5,0.00
2012-8-30,84.0,66.8,53.0,63.0,56.1,48.8,94,71,35,30.11,29.99,12,2,12,0.00
2012-8-31,95.1,78.4,62.8,68.5,61.2,57.9,86,59,33,30.02,29.84,13,3,17,0.00
2012-9-1,85.3,73.8,61.5,68.5,61.3,55.7,88,67,37,30.08,29.94,5,0,6,0.00
2012-9-2,85.3,70.2,58.2,66.3,58.4,54.6,91,69,38,30.08,29.99,9,1,11,0.00
2012-9-3,77.2,71.1,64.2,69.6,65.6,57.1,90,83,75,30.07,29.99,15,3,15,0.00
2012-9-4,79.0,73.4,69.9,72.4,69.5,66.6,96,88,80,30.01,29.74,16,3,16,0.94
2012-9-5,81.5,71.4,65.8,68.6,65.9,62.8,96,84,60,29.88,29.77,5,0,5,0.01
2012-9-6,83.0,71.7,66.5,72.9,66.5,63.6,94,84,66,29.91,29.81,13,2,13,0.08
2012-9-7,80.7,72.3,64.1,71.2,66.5,62.9,97,83,62,29.94,29.73,12,1,12,0.01
2012-9-8,76.5,74.0,72.6,69.4,68.0,65.7,87,82,70,29.74,29.50,21,4,21,0.00
2012-9-9,72.3,62.9,53.0,58.6,53.8,48.1,94,73,50,29.99,29.84,8,0,9,0.01
2012-9-10,67.8,58.8,51.5,54.7,49.0,44.4,89,71,45,30.16,29.98,9,1,9,0.00
2012-9-11,74.8,59.8,47.9,55.4,50.7,45.5,98,74,40,30.28,30.15,12,1,12,0.00
2012-9-12,82.0,66.8,55.0,62.3,56.4,51.6,93,72,36,30.33,30.22,11,2,11,0.00
2012-9-13,84.8,70.6,59.7,64.8,60.0,55.8,88,71,42,30.31,30.19,11,2,11,0.00
2012-9-14,70.1,67.9,65.7,63.2,61.9,60.0,83,81,78,30.21,30.19,10,2,10,0.00
2012-9-17,76.9,67.1,55.1,62.5,54.5,49.7,92,66,42,30.08,29.89,17,3,17,0.00
2012-9-18,68.5,64.4,53.2,67.3,61.1,49.4,96,90,71,29.89,29.43,14,2,14,1.22
2012-9-19,61.8,54.1,47.4,51.6,47.7,45.2,92,80,61,30.20,29.81,9,0,9,0.00
2012-9-20,71.0,59.4,48.0,53.8,49.4,45.5,94,72,47,30.19,29.98,19,4,23,0.00
2012-9-21,68.2,62.6,61.3,61.3,55.2,52.5,81,77,71,30.00,29.92,16,3,16,0.00
2012-9-22,72.3,62.3,51.1,62.2,56.4,47.8,92,81,66,29.96,29.69,20,2,20,0.28
2012-9-23,62.3,54.7,47.8,49.0,43.3,38.6,93,67,45,30.14,29.92,10,1,11,0.02
2012-9-24,63.1,53.4,44.7,47.5,43.2,40.5,88,70,46,30.18,30.03,11,1,11,0.00
2012-9-25,71.8,61.1,51.2,49.7,46.2,43.2,78,60,39,30.06,29.98,16,4,16,0.00
2012-9-27,62.7,60.4,59.5,49.5,48.7,48.2,67,66,62,30.18,30.17,2,0,2,0.00
2012-9-29,51.5,50.6,50.2,49.8,48.9,48.5,94,94,94,30.01,30.00,0,0,0,0.68
2012-10-7,54.0,48.3,40.1,45.3,42.8,38.5,95,82,64,30.12,29.99,8,1,8,0.18
2012-10-8,54.8,44.4,37.2,42.8,39.0,35.9,96,82,59,30.26,30.12,12,1,12,0.00
2012-10-9,62.3,51.1,39.9,47.8,42.4,37.2,92,74,49,30.26,30.02,14,2,14,0.00
2012-10-10,59.9,51.6,43.7,49.2,44.8,38.9,91,78,58,30.02,29.78,17,2,17,0.01
2012-10-11,57.2,48.9,40.2,39.8,35.6,32.7,80,61,40,30.21,29.99,13,2,13,0.00
2012-10-12,53.3,45.2,37.6,43.8,34.7,26.5,91,68,46,30.45,30.04,11,2,11,0.08
2012-10-13,52.4,44.3,33.0,42.2,32.2,24.9,88,64,37,30.49,30.07,19,3,19,0.03
2012-10-14,73.2,60.5,48.2,59.4,51.9,41.6,87,74,60,30.08,29.71,20,5,20,0.14
2012-10-15,69.0,60.5,49.0,58.7,51.3,39.7,83,72,55,29.78,29.56,16,3,16,0.01
2012-10-16,54.7,47.5,40.3,40.7,38.9,36.8,89,72,55,29.94,29.77,10,1,10,0.00
2012-10-17,65.1,52.4,39.9,50.4,43.5,37.1,93,74,49,29.97,29.82,14,3,14,0.00
2012-10-18,65.8,58.5,52.2,52.7,49.0,44.1,83,71,47,29.88,29.77,23,5,23,0.00
2012-10-19,62.7,55.1,49.9,58.4,52.7,48.0,96,92,79,29.91,29.60,11,1,12,0.50
2012-10-20,60.7,53.4,46.8,53.9,46.0,41.2,95,77,53,29.78,29.60,15,2,16,0.01
2012-10-21,63.4,54.3,46.0,47.2,43.5,40.1,86,68,46,30.07,29.78,16,2,16,0.00
2012-10-22,65.8,53.8,44.8,51.3,46.3,41.9,93,77,52,30.12,30.06,10,1,10,0.00
2012-10-23,54.1,50.9,46.4,53.2,49.1,43.4,97,93,84,30.12,30.03,11,1,11,0.55
2012-10-24,58.4,55.5,52.9,56.5,54.4,52.1,97,96,92,30.13,30.06,4,0,4,0.01
2012-10-25,69.0,62.1,56.8,61.4,58.5,55.8,97,88,76,30.14,30.05,20,3,20,0.00
2012-10-26,68.5,62.4,55.6,59.0,56.3,49.4,87,81,71,30.12,30.03,13,3,14,0.00
2012-10-27,56.6,52.8,49.3,54.3,50.2,47.8,95,91,80,30.12,29.94,9,0,9,0.09
2012-10-28,49.4,47.1,46.1,48.0,45.8,45.0,97,95,94,30.03,29.84,14,1,14,0.20
2012-10-29,54.2,49.7,46.2,53.0,48.2,45.1,96,95,90,29.86,28.98,25,4,25,0.49
2012-10-30,59.1,52.2,45.5,55.2,47.0,40.7,95,83,71,29.43,28.97,22,6,22,0.09
2012-10-31,45.5,43.7,42.5,41.0,39.2,36.7,90,84,74,29.49,29.41,9,2,12,0.03
2012-11-1,47.9,44.8,42.7,45.0,42.1,39.5,95,90,83,29.62,29.46,10,0,10,0.21
2012-11-2,43.8,41.1,37.7,40.3,36.6,33.8,91,84,73,29.85,29.61,15,2,15,0.05
2012-11-3,42.4,39.4,36.9,37.2,34.3,32.6,87,82,73,30.06,29.85,17,3,17,0.00
2012-11-4,37.5,36.8,35.7,33.4,32.3,31.5,89,84,80,30.09,30.05,11,2,11,0.00
2012-11-5,36.6,35.7,35.0,33.3,28.5,24.3,88,75,64,30.21,30.08,8,1,8,0.01
2012-11-6,42.9,35.8,29.6,27.9,26.2,24.3,85,69,51,30.22,30.08,11,1,12,0.00
2012-11-7,40.1,34.2,27.0,29.0,25.6,22.7,85,71,53,30.13,30.04,10,1,10,0.00
2012-11-8,42.5,36.5,32.7,32.1,28.4,25.1,82,72,62,30.10,30.02,15,3,18,0.00
2012-11-9,49.3,42.1,34.7,40.9,34.8,26.9,87,75,60,30.21,30.07,8,1,8,0.00
2012-11-10,52.6,48.2,43.3,45.7,42.7,40.0,92,81,71,30.31,30.20,15,2,15,0.02
2012-11-11,68.6,58.3,51.9,47.9,44.3,40.7,76,60,44,30.33,30.24,14,4,14,0.00
2012-11-12,66.3,59.6,43.8,53.8,49.3,40.7,91,69,61,30.25,29.97,27,4,27,0.52
2012-11-13,43.7,39.1,37.5,41.4,31.9,25.1,93,76,61,30.53,30.19,13,1,13,0.17
2012-11-14,43.2,37.3,31.0,31.0,28.4,26.4,88,70,58,30.62,30.49,7,1,7,0.01
2012-11-15,45.7,34.8,30.1,32.5,29.0,26.1,90,80,56,30.50,30.33,9,1,9,0.00
2012-11-16,31.5,30.7,29.9,27.6,27.1,26.5,87,86,85,30.36,30.34,3,1,3,0.00
2012-11-18,49.8,41.5,30.3,37.9,34.3,28.5,93,76,59,30.68,30.53,10,3,10,0.01
2012-11-19,52.9,39.8,32.7,39.2,33.8,29.0,92,80,52,30.54,30.25,11,2,11,0.00
2012-11-20,47.2,39.9,35.1,38.2,34.5,30.8,89,81,65,30.25,30.13,8,1,8,0.00
2012-11-21,51.5,39.9,33.9,41.4,34.7,30.9,93,82,56,30.26,30.17,9,1,9,0.00
2012-11-22,60.3,45.9,35.3,38.8,35.3,31.6,91,69,38,30.24,30.02,13,3,13,0.00
2012-11-23,56.0,47.7,38.3,44.5,36.6,27.4,72,65,56,30.02,29.66,21,5,21,0.00
2012-11-24,38.7,35.2,32.6,29.2,25.4,22.2,80,67,57,29.91,29.74,23,4,23,0.00
2012-11-25,36.4,34.4,32.9,29.9,25.0,20.6,82,68,58,29.92,29.82,16,3,16,0.00
2012-11-26,42.7,37.5,34.1,29.7,27.4,24.9,78,67,53,30.24,29.89,13,2,13,0.00
2012-11-27,43.1,36.5,33.3,29.7,26.2,20.8,82,67,44,30.30,30.22,9,0,9,0.00
2012-11-28,37.6,33.9,27.3,31.1,25.5,21.2,83,71,57,30.26,30.16,18,2,18,0.00
2012-11-29,48.4,37.4,27.9,31.0,25.5,20.9,86,63,41,30.29,30.19,18,2,18,0.00
2012-11-30,40.2,31.4,28.5,33.4,26.8,23.0,92,83,56,30.44,30.26,9,1,9,0.00
2012-12-1,46.9,40.1,26.9,40.8,35.9,24.9,95,85,76,30.40,30.25,18,4,19,0.04
2012-12-2,51.0,47.2,43.9,48.5,43.1,39.0,94,86,80,30.27,29.96,18,4,19,0.15
2012-12-3,52.4,47.9,42.3,49.3,44.0,39.6,95,86,74,30.25,30.06,13,1,13,0.01
2012-12-4,71.4,57.9,47.8,55.5,51.3,45.3,95,80,52,30.12,29.86,18,3,18,0.45
2012-12-5,47.9,38.2,31.2,45.6,31.3,20.4,94,76,63,30.36,29.96,14,2,14,0.06
2012-12-6,40.1,34.8,28.4,28.8,24.2,19.9,79,65,57,30.41,30.10,19,3,19,0.01
2012-12-7,40.6,38.6,36.2,38.2,33.1,25.0,94,81,61,30.11,29.97,22,4,22,0.30
2012-12-8,52.2,44.5,39.8,48.3,41.8,34.9,95,90,82,30.14,29.76,14,3,14,0.13
2012-12-9,43.7,39.6,35.5,40.9,33.5,30.1,92,79,69,30.29,29.85,24,3,24,0.05
2012-12-10,54.2,45.7,38.3,50.3,43.4,35.6,94,92,86,29.86,29.49,19,2,22,0.58
2012-12-11,38.3,33.8,29.9,35.6,30.3,27.3,92,87,78,30.20,29.70,9,0,9,0.01
2012-12-12,43.9,36.3,29.9,29.7,27.4,25.2,86,71,52,30.44,30.20,14,1,14,0.00
2012-12-13,45.6,37.0,31.3,33.0,28.4,25.0,87,72,50,30.47,30.25,11,2,11,0.00
2012-12-14,46.8,39.3,31.9,34.7,30.6,24.9,79,71,50,30.27,30.18,12,2,12,0.00
2012-12-15,43.7,39.9,34.5,35.7,33.2,30.1,89,77,68,30.32,30.05,21,2,21,0.00
2012-12-16,49.5,45.3,42.8,43.3,40.0,34.2,91,82,71,30.06,29.78,26,7,26,0.09
2012-12-17,47.3,44.8,42.4,44.2,42.4,41.0,95,92,88,29.78,29.57,22,6,22,0.93
2012-12-18,45.6,42.6,40.6,44.3,40.0,32.0,96,91,71,29.70,29.46,14,1,14,0.22
2012-12-19,43.2,39.1,33.6,34.9,31.8,26.9,85,75,63,30.20,29.70,13,2,13,0.00
2012-12-20,41.8,35.2,27.8,37.9,29.0,24.8,91,79,61,30.22,29.50,32,6,32,0.08
2012-12-21,42.9,37.1,34.4,39.4,34.7,31.7,95,91,84,29.50,29.19,25,2,26,0.85
2012-12-22,34.6,31.6,28.2,31.5,25.2,22.4,91,77,65,29.91,29.28,30,5,30,0.02
2012-12-23,39.4,34.9,31.5,28.8,26.3,22.4,85,71,51,29.99,29.81,14,2,14,0.00
2012-12-24,35.7,33.0,30.7,30.3,24.2,20.7,93,70,61,30.09,29.90,13,3,13,0.00
2012-12-25,31.9,30.0,27.6,30.0,26.1,22.1,94,85,75,30.35,29.90,13,1,13,0.03
2012-12-26,30.1,25.7,23.1,28.8,21.4,17.2,95,84,70,30.38,29.72,7,1,7,0.00
2012-12-27,28.3,25.6,22.5,26.2,22.9,20.5,93,89,83,30.02,29.68,14,3,14,0.00
2012-12-28,30.1,27.7,24.9,26.2,23.2,21.2,88,83,76,30.15,30.01,14,2,14,0.02
2012-12-29,30.0,28.3,25.3,27.8,25.7,22.6,94,90,80,30.06,29.65,12,2,12,0.01
2012-12-30,29.2,26.6,23.7,23.7,20.3,17.6,92,77,67,30.25,29.80,18,3,18,0.00
2012-12-31,37.0,31.3,25.8,29.9,23.3,18.7,86,72,59,30.21,29.87,10,2,14,0.13
2013-1-1,35.6,25.3,8.2,29.6,18.5,4.1,86,75,64,30.07,29.85,14,2,14,0.01